Home   Weather   Shantou   Past weeks
Flag for China

Past Weather in Shantou, Guangdong, China — Yesterday and Last 2 Weeks

Now
64 °F

Passing clouds.


Feels Like: 64 °F
Forecast: 67 / 53 °F
Wind: 8 mph from East

Location: Shantou Airport

Current Time: Jan 17, 2019 at 7:08:00 pm

Latest Report: Jan 17, 2019 at 6:00 pm


Visibility: 5 mi

Pressure: 30.18 "Hg

Humidity: 68%

Dew Point: 54 °F

Location of ShantouLocation

Past Weather in Shantou — Graph

°F

Shantou Temperature Yesterday

Maximum temperature yesterday: 63 °F (at 12:00 am)
Minimum temperature yesterday: 57 °F (at 5:00 am)
Average temperature yesterday: 59 °F

High & Low Weather Summary for the Past Weeks

 TemperatureHumidityPressure
High81 °F (Jan 12, 2:00 pm)100% (Jan 3, 8:00 pm)30.36 "Hg (Jan 3, 8:00 pm)
Low55 °F (Jan 3, 12:00 am)53% (Jan 17, 2:00 pm)30.01 "Hg (Jan 12, 3:00 pm)
Average64 °F83%30.17 "Hg
* Reported Jan 2 5:00 pm — Jan 17 5:00 pm, Shantou. Weather by CustomWeather, © 2019

Note: Actual official high and low records may vary slightly from our data, if they occured in-between our weather recording intervals... More about our weather records

Advertising

Shantou Weather History for the Previous 24 Hours

Scroll right to see more
 ConditionsComfort  
Time TempWeatherWind HumidityBarometerVisibility
5:00 pm
Thu, Jan 17
68 °FScattered clouds.8 mph56%30.15 "HgN/A
4:00 pm68 °FScattered clouds.3 mph56%30.15 "HgN/A
3:00 pm68 °FScattered clouds.6 mph53%30.15 "HgN/A
2:00 pm68 °FScattered clouds.6 mph53%30.15 "HgN/A
1:00 pm66 °FPassing clouds.8 mph56%30.18 "HgN/A
12:00 pm64 °FPassing clouds.6 mph60%30.24 "HgN/A
11:00 am61 °FPassing clouds.3 mph63%30.27 "HgN/A
10:00 am59 °FPartly sunny.8 mph68%30.27 "HgN/A
9:00 am55 °FBroken clouds.8 mph77%30.27 "HgN/A
8:00 am55 °FPartly sunny.8 mph77%30.24 "HgN/A
7:00 am55 °FPartly sunny.6 mph77%30.24 "HgN/A
6:00 am55 °FPassing clouds.6 mph77%30.21 "HgN/A
5:00 am55 °FPassing clouds.6 mph77%30.18 "HgN/A
4:00 am55 °FPassing clouds.8 mph77%30.18 "HgN/A
3:00 am55 °FPassing clouds.6 mph77%30.18 "HgN/A
2:00 am55 °FPassing clouds.3 mph82%30.18 "HgN/A
1:00 am55 °FPartly cloudy.3 mph77%30.21 "HgN/A
12:00 am57 °FPassing clouds.6 mph77%30.21 "HgN/A
11:00 pm
Wed, Jan 16
57 °FPassing clouds.6 mph77%30.21 "HgN/A
10:00 pm57 °FOvercast.6 mph77%30.21 "HgN/A
9:00 pm57 °FMostly cloudy.6 mph77%30.21 "HgN/A
8:00 pm57 °FMostly cloudy.8 mph77%30.21 "HgN/A
7:00 pm57 °FOvercast.8 mph77%30.18 "HgN/A
Weather by CustomWeather, © 2019

See weather overview